HB9EYW-6 Weather Reports


time (UTC)temp
C
wind
direction
speed
KPH
gust
KPH
rain 1hr
cm
rain 24hr
cm
rain mn
cm
humidity
%
barometer
mb
20260505200504 13 0 0.0 0.0 0.00 0.03 0.03 66
20260505200004 13 135 0.0 1.6 0.00 0.03 0.03 66
20260505195504 14 135 0.0 1.6 0.00 0.03 0.03 66
20260505195004 14 135 0.0 3.2 0.00 0.03 0.03 65
20260505194504 14 135 0.0 3.2 0.00 0.03 0.03 64
20260505194004 14 135 0.0 3.2 0.00 0.03 0.03 63
20260505193504 14 135 0.0 1.6 0.00 0.03 0.03 61
20260505193004 14 170 0.0 1.6 0.00 0.03 0.03 60
20260505192504 14 177 0.0 3.2 0.00 0.03 0.03 60
20260505192004 15 175 0.0 3.2 0.00 0.03 0.03 59
20260505191504 15 187 0.0 3.2 0.00 0.03 0.03 59
20260505191004 15 214 0.0 1.6 0.00 0.03 0.03 59
20260505190504 15 227 0.0 1.6 0.00 0.03 0.03 59
20260505190004 15 215 0.0 3.2 0.00 0.03 0.03 59
20260505185504 15 145 0.0 3.2 0.00 0.03 0.03 59
20260505185004 15 125 0.0 3.2 0.00 0.03 0.03 58
20260505184504 15 148 0.0 3.2 0.00 0.03 0.03 57
20260505184004 16 145 0.0 3.2 0.00 0.03 0.03 55
20260505183504 16 133 0.0 3.2 0.00 0.03 0.03 53
20260505183005 16 120 0.0 3.2 0.00 0.03 0.03 50
20260505182504 17 131 0.0 3.2 0.00 0.03 0.03 49
20260505182004 18 147 0.0 3.2 0.00 0.03 0.03 48
20260505181504 18 115 0.0 3.2 0.00 0.03 0.03 49
20260505181004 18 0 0.0 0.0 0.00 0.03 0.03 52
20260505180504 17 148 0.0 1.6 0.00 0.03 0.03 54
20260505180004 17 219 0.0 3.2 0.00 0.03 0.03 54
20260505175504 16 238 0.0 3.2 0.00 0.03 0.03 54
20260505175004 16 255 0.0 4.8 0.00 0.03 0.03 54
20260505174504 16 277 0.0 6.4 0.00 0.03 0.03 53
20260505174004 16 261 3.2 6.4 0.00 0.03 0.03 52
20260505173504 17 208 1.6 6.4 0.00 0.03 0.03 55
20260505173004 17 242 1.6 4.8 0.00 0.03 0.03 57
20260505172504 17 260 0.0 3.2 0.00 0.03 0.03 57
20260505172004 17 169 0.0 1.6 0.00 0.03 0.03 57
20260505171504 17 0 0.0 0.0 0.00 0.05 0.03 57
20260505171004 17 0 0.0 0.0 0.00 0.05 0.03 56
20260505170504 18 153 0.0 1.6 0.00 0.05 0.03 55
20260505170004 18 137 0.0 3.2 0.00 0.05 0.03 55
20260505165504 18 136 0.0 3.2 0.00 0.05 0.03 54
20260505165004 18 135 0.0 1.6 0.00 0.05 0.03 54
20260505164504 18 90 0.0 1.6 0.00 0.05 0.03 53
20260505164004 18 224 0.0 3.2 0.00 0.10 0.03 52
20260505163504 18 214 0.0 3.2 0.00 0.10 0.03 51
20260505163004 19 171 0.0 1.6 0.00 0.10 0.03 50
20260505162504 19 195 0.0 3.2 0.00 0.13 0.03 50
20260505162004 20 195 0.0 3.2 0.00 0.15 0.03 49
20260505161504 20 180 0.0 3.2 0.00 0.15 0.03 49
20260505161004 20 180 0.0 3.2 0.00 0.18 0.03 47
20260505160504 20 195 0.0 3.2 0.00 0.20 0.03 49
20260505153004 17 224 1.6 3.2 0.00 0.30 0.03 62
20260505152504 17 270 0.0 4.8 0.00 0.30 0.03 63
20260505152004 17 278 0.0 4.8 0.00 0.30 0.03 63
20260505151504 17 276 1.6 4.8 0.00 0.33 0.03 63
20260505151004 17 274 0.0 3.2 0.00 0.33 0.03 64
20260505150504 17 275 1.6 4.8 0.00 0.33 0.03 64
20260505140504 16 299 6.4 16.1 0.00 0.33 0.03 62
20260505125004 22 186 0.0 4.8 0.00 0.33 0.03 43
20260505124504 22 204 1.6 4.8 0.00 0.33 0.03 44
20260505124004 21 196 0.0 4.8 0.00 0.33 0.03 44
20260505123504 21 168 1.6 4.8 0.00 0.33 0.03 45
20260505123004 21 11 0.0 3.2 0.00 0.33 0.03 47
20260505122504 20 271 0.0 3.2 0.00 0.33 0.03 49
20260505122004 20 225 0.0 3.2 0.00 0.33 0.03 50
20260505121504 20 93 0.0 4.8 0.00 0.33 0.03 49
20260505121004 20 90 0.0 4.8 0.00 0.33 0.03 50
20260505120504 21 110 0.0 6.4 0.00 0.33 0.03 48
20260505120005 21 143 0.0 6.4 0.00 0.33 0.03 48
20260505115504 21 151 1.6 6.4 0.00 0.33 0.03 51
20260505115004 21 139 0.0 3.2 0.00 0.33 0.03 52
20260505114504 20 106 0.0 4.8 0.00 0.33 0.03 54
20260505114004 20 114 0.0 4.8 0.00 0.33 0.03 55
20260505113504 20 176 1.6 4.8 0.00 0.33 0.03 55
20260505113004 20 160 1.6 3.2 0.00 0.33 0.03 56
20260505112504 20 147 0.0 3.2 0.00 0.33 0.03 59
20260505112004 19 358 0.0 3.2 0.00 0.33 0.03 61
20260505111504 18 308 0.0 3.2 0.00 0.33 0.03 63
20260505111004 18 232 0.0 3.2 0.00 0.33 0.03 66
20260505110504 17 219 0.0 1.6 0.00 0.33 0.03 71
20260505102004 16 277 0.0 3.2 0.00 0.33 0.03 70
20260505101504 16 202 0.0 1.6 0.00 0.33 0.03 71
20260505101004 16 225 0.0 1.6 0.00 0.33 0.03 70
20260505100504 16 319 0.0 3.2 0.00 0.33 0.03 73
20260505100004 16 293 0.0 3.2 0.00 0.33 0.03 73
20260505095504 16 284 0.0 3.2 0.00 0.33 0.03 72
20260505095004 16 270 0.0 3.2 0.00 0.33 0.03 72
20260505094504 16 270 0.0 3.2 0.00 0.33 0.03 72
20260505094004 16 265 0.0 3.2 0.00 0.33 0.03 73
20260505093504 16 143 0.0 3.2 0.00 0.33 0.03 74
20260505093004 16 145 0.0 3.2 0.00 0.33 0.03 74
20260505092504 16 303 0.0 3.2 0.00 0.33 0.03 75
20260505092004 16 276 0.0 3.2 0.00 0.33 0.03 76
20260505091504 16 225 0.0 3.2 0.00 0.33 0.03 77
20260505091004 16 135 0.0 1.6 0.00 0.33 0.03 77
20260505090504 15 198 0.0 3.2 0.00 0.33 0.03 78
20260505090004 15 182 0.0 3.2 0.00 0.33 0.03 78
20260505085504 15 152 0.0 3.2 0.00 0.33 0.03 79
20260505085004 15 180 0.0 1.6 0.00 0.33 0.03 81
20260505084504 15 163 0.0 1.6 0.00 0.33 0.03 82
20260505084004 15 135 0.0 1.6 0.00 0.33 0.03 83
20260505083504 15 135 0.0 1.6 0.00 0.33 0.03 83
20260505083004 15 135 0.0 1.6 0.00 0.33 0.03 84
20260505082504 15 135 0.0 1.6 0.03 0.33 0.03 85
20260505082004 15 135 0.0 1.6 0.03 0.33 0.03 85
20260505081504 15 0 0.0 0.0 0.03 0.33 0.03 86
20260505081004 14 0 0.0 0.0 0.03 0.33 0.03 86
20260505080504 14 0 0.0 0.0 0.03 0.33 0.03 87
20260505080004 14 225 0.0 1.6 0.03 0.33 0.03 87
20260505075504 14 247 0.0 1.6 0.03 0.33 0.03 87
20260505075004 14 278 0.0 1.6 0.03 0.33 0.03 88
20260505074504 14 360 0.0 1.6 0.03 0.33 0.03 88
20260505074004 13 225 0.0 1.6 0.03 0.33 0.03 89
20260505073504 13 176 0.0 1.6 0.03 0.33 0.03 89
20260505073004 13 119 0.0 3.2 0.03 0.33 0.03 88
20260505072504 13 130 0.0 3.2 0.00 0.30 0.00 88
20260505072004 13 133 0.0 3.2 0.00 0.30 0.00 88
20260505071504 13 130 1.6 3.2 0.00 0.30 0.00 89
20260505071004 13 135 0.0 3.2 0.00 0.30 0.00 89
20260505070504 13 135 0.0 3.2 0.00 0.30 0.00 89
20260505070004 13 135 0.0 4.8 0.00 0.30 0.00 89
20260505065504 13 135 0.0 4.8 0.00 0.30 0.00 90
20260505065004 13 130 3.2 4.8 0.00 0.30 0.00 90
20260505064504 13 127 0.0 3.2 0.00 0.30 0.00 90
20260505064004 13 135 0.0 3.2 0.00 0.30 0.00 91
20260505063504 13 135 0.0 3.2 0.00 0.30 0.00 91
20260505063004 13 129 0.0 3.2 0.00 0.30 0.00 91
20260505062504 13 166 0.0 3.2 0.00 0.30 0.00 91
20260505062004 13 225 0.0 1.6 0.00 0.30 0.00 92
20260505061504 13 164 0.0 3.2 0.00 0.30 0.00 92
20260505061004 13 138 0.0 3.2 0.00 0.30 0.00 92
20260505060504 12 135 0.0 3.2 0.00 0.30 0.00 93
20260505060004 12 135 0.0 3.2 0.00 0.30 0.00 93
20260505055504 12 135 0.0 3.2 0.00 0.30 0.00 93
20260505055004 12 135 0.0 3.2 0.00 0.30 0.00 93
20260505054504 12 135 1.6 3.2 0.00 0.30 0.00 93
20260505054004 12 135 0.0 3.2 0.00 0.30 0.00 93
20260505053504 12 315 0.0 1.6 0.00 0.30 0.00 93
20260505053004 12 315 0.0 1.6 0.00 0.30 0.00 93
20260505052504 12 0 0.0 0.0 0.00 0.30 0.00 93
20260505052004 12 0 0.0 0.0 0.00 0.30 0.00 93
20260505051504 12 315 0.0 1.6 0.00 0.30 0.00 93
20260505051004 12 315 0.0 1.6 0.00 0.30 0.00 93
20260505050504 12 310 0.0 1.6 0.00 0.30 0.00 93
20260505041504 12 113 0.0 4.8 0.00 0.30 0.00 93
20260505041004 12 123 1.6 3.2 0.00 0.30 0.00 93
20260505040504 12 135 0.0 3.2 0.00 0.30 0.00 94
20260505040004 12 135 0.0 3.2 0.00 0.30 0.00 94
20260505035504 12 135 0.0 3.2 0.00 0.30 0.00 94
20260505035004 12 130 0.0 6.4 0.00 0.30 0.00 94
20260505034504 12 131 0.0 6.4 0.00 0.30 0.00 94
20260505034004 12 135 0.0 3.2 0.00 0.30 0.00 94
20260505033504 12 135 0.0 3.2 0.00 0.30 0.00 94
20260505033004 12 144 0.0 3.2 0.00 0.30 0.00 95
20260505032504 12 184 0.0 1.6 0.00 0.30 0.00 95
20260505032004 12 151 0.0 3.2 0.00 0.30 0.00 95
20260505031504 12 136 0.0 3.2 0.00 0.30 0.00 95
20260505031004 12 135 0.0 1.6 0.00 0.30 0.00 96
20260505030504 12 135 0.0 3.2 0.00 0.30 0.00 96
20260505030004 12 137 0.0 3.2 0.00 0.30 0.00 96
20260505025504 12 133 0.0 6.4 0.00 0.30 0.00 96
20260505025004 12 132 0.0 6.4 0.00 0.30 0.00 96
20260505024504 12 135 3.2 6.4 0.00 0.30 0.00 97
20260505024004 12 135 0.0 3.2 0.00 0.30 0.00 96
20260505023504 12 135 0.0 3.2 0.00 0.30 0.00 97
20260505023004 12 135 0.0 3.2 0.00 0.30 0.00 97
20260505022504 12 135 0.0 1.6 0.00 0.30 0.00 97
20260505022004 12 122 0.0 3.2 0.00 0.30 0.00 97
20260505021504 12 125 0.0 3.2 0.00 0.30 0.00 97
20260505021004 12 132 0.0 3.2 0.00 0.30 0.00 97
20260505020504 12 130 0.0 3.2 0.00 0.30 0.00 98
20260505020004 12 118 0.0 3.2 0.00 0.30 0.00 98
20260505015504 12 135 0.0 3.2 0.00 0.30 0.00 98
20260505015003 12 135 0.0 3.2 0.00 0.30 0.00 98
20260505014504 12 135 0.0 3.2 0.00 0.30 0.00 98
20260505014004 12 135 0.0 3.2 0.00 0.30 0.00 98
20260505013503 12 135 0.0 3.2 0.00 0.30 0.00 98
20260505013004 12 135 0.0 1.6 0.00 0.30 0.00 98
20260505012503 12 135 0.0 3.2 0.00 0.30 0.00 98
20260505012004 12 135 0.0 3.2 0.00 0.30 0.00 98
20260505011503 12 135 0.0 3.2 0.00 0.30 0.00 98
20260505011004 12 135 0.0 3.2 0.00 0.30 0.00 98
20260505010503 12 135 0.0 3.2 0.00 0.30 0.00 98
20260505010004 12 148 0.0 3.2 0.00 0.30 0.00 98
20260505005503 12 151 0.0 3.2 0.00 0.30 0.00 98
20260505005004 12 147 0.0 1.6 0.00 0.30 0.00 97
20260505004503 12 147 0.0 1.6 0.00 0.30 0.00 97
20260505004004 12 135 0.0 1.6 0.00 0.30 0.00 97
20260505003503 12 128 0.0 3.2 0.00 0.30 0.00 96
20260505003003 12 130 0.0 3.2 0.00 0.30 0.00 96
20260505002503 12 141 0.0 3.2 0.00 0.30 0.00 95
20260505002003 12 140 0.0 3.2 0.00 0.30 0.00 95
20260505001503 12 137 0.0 3.2 0.00 0.30 0.00 95
20260505001003 12 135 0.0 3.2 0.00 0.30 0.00 94
20260505000503 12 134 1.6 4.8 0.00 0.30 0.00 94
20260505000004 12 133 1.6 4.8 0.00 0.30 0.00 94
20260504235503 12 141 0.0 3.2 0.00 0.30 0.00 93
20260504235003 12 141 0.0 3.2 0.00 0.30 0.00 93
20260504234503 12 135 0.0 3.2 0.00 0.30 0.00 93
20260504234003 13 135 0.0 3.2 0.00 0.30 0.00 93
20260504233503 13 135 0.0 3.2 0.00 0.30 0.00 93
20260504233003 13 135 0.0 3.2 0.00 0.30 0.00 93
20260504232503 13 164 0.0 1.6 0.00 0.30 0.00 92
20260504232003 13 225 0.0 1.6 0.00 0.30 0.00 92
20260504231503 13 135 0.0 1.6 0.00 0.30 0.00 92
20260504231003 13 135 0.0 1.6 0.00 0.30 0.00 92
20260504230503 13 0 0.0 0.0 0.00 0.30 0.00 91
20260504230004 13 0 0.0 0.0 0.00 0.30 0.00 91
20260504225503 13 0 0.0 0.0 0.00 0.30 0.00 91
20260504225003 13 0 0.0 0.0 0.00 0.30 0.00 91
20260504224503 13 0 0.0 0.0 0.00 0.30 0.00 91
20260504224003 13 0 0.0 0.0 0.00 0.30 0.00 90
20260504223503 13 0 0.0 0.0 0.00 0.30 0.00 90
20260504223003 13 0 0.0 0.0 0.00 0.30 0.00 90
20260504222504 13 0 0.0 0.0 0.00 0.30 0.00 90
20260504222003 13 0 0.0 0.0 0.00 0.30 0.00 90
20260504221503 13 0 0.0 0.0 0.00 0.30 0.00 89
20260504221003 13 0 0.0 0.0 0.00 0.30 0.00 89
20260504220503 13 135 0.0 1.6 0.00 0.30 0.00 89
20260504220004 13 135 0.0 1.6 0.00 0.30 0.00 89
20260504215503 13 135 0.0 1.6 0.00 0.30 0.30 88
20260504215003 13 135 0.0 1.6 0.00 0.30 0.30 88
20260504214503 13 135 0.0 1.6 0.00 0.30 0.30 88
20260504214003 13 135 0.0 1.6 0.00 0.30 0.30 88
20260504213503 13 131 0.0 1.6 0.00 0.30 0.30 88
20260504213003 14 127 0.0 3.2 0.00 0.30 0.30 88
20260504212503 14 132 0.0 3.2 0.00 0.30 0.30 88
20260504212003 14 135 0.0 3.2 0.00 0.30 0.30 87
20260504211503 14 135 0.0 3.2 0.00 0.30 0.30 87
20260504211003 14 135 0.0 1.6 0.00 0.30 0.30 87
20260504210503 14 135 0.0 3.2 0.00 0.30 0.30 87
20260504210004 14 135 0.0 3.2 0.00 0.30 0.30 87
20260504205503 14 135 0.0 1.6 0.00 0.30 0.30 87
20260504205003 14 135 0.0 1.6 0.00 0.30 0.30 86
20260504204503 14 135 0.0 1.6 0.00 0.30 0.30 86
20260504204003 14 135 0.0 3.2 0.00 0.30 0.30 86
20260504203503 14 135 0.0 3.2 0.00 0.30 0.30 85
20260504203003 14 135 0.0 3.2 0.00 0.30 0.30 85
20260504202503 14 135 0.0 3.2 0.00 0.30 0.30 85
20260504202003 14 135 1.6 3.2 0.00 0.30 0.30 85
20260504201503 14 24 0.0 3.2 0.00 0.30 0.30 84
20260504201003 14 356 0.0 3.2 0.00 0.30 0.30 84